Location: Howell Woods
(35.3600°N, 78.2900°W)
Time: 17:35:09
(UTC-05:00)

ISS - Pass Details

Date: 05 December 2021
Orbit: 413 x 422 km, 51.6° (Epoch: 28 January)

Event Time Altitude Azimuth Distance (km) Brightness Sun altitude
Rises 17:14:42 0° 327° (NNW) 2,384 0.2 -3.5°
Reaches altitude 10° 17:18:11 10° 5° (N) 1,512 -1.2 -4.1°
Maximum altitude 17:19:15 11° 23° (NNE) 1,444 -1.5 -4.3°
Drops below altitude 10° 17:20:19 10° 41° (NE) 1,509 -1.5 -4.5°
Enters shadow 17:21:55 - 63° (ENE) 1,822 -1.2 -4.8°
